Wind_Speed
31 32 33 34 34 34 35 35 36 37 38 39 39 39 39 39 40 41 41 42 42 43 43 42 42 43 43 44 44 44 45 45 46 47 48 49 50 50 51 51 51 50 50
32 33 33 34 34 35 36 36 37 38 39 39 39 39 39 39 40 40 41 42 42 41 41 41 42 42 42 43 44 44 44 44 44 45 46 46 47 47 47 46 45 44 44
32 33 33 34 34 35 35 36 37 38 39 39 39 40 40 40 40 41 41 40 40 40 40 41 41 42 42 43 43 43 43 43 43 43 42 42 42 42 42 43 43 42 41
31 32 33 34 34 35 36 36 37 37 37 37 38 38 38 39 39 39 39 38 39 39 39 39 39 40 40 40 40 40 40 39 39 39 39 39 39 39 39 39 39 38 38
29 30 31 32 34 34 34 34 34 35 35 36 36 36 36 36 36 36 36 37 37 38 37 37 37 38 38 37 37 36 36 36 36 37 37 37 36 36 36 35 35 35 35
26 27 29 30 30 30 31 32 32 33 33 33 33 34 34 34 34 34 35 35 34 35 35 35 35 34 33 33 33 33 33 33 33 33 33 33 33 33 32 32 32 31 31
26 27 27 27 27 28 29 30 30 30 30 30 31 31 32 31 31 31 31 31 31 31 31 30 30 30 30 30 29 29 29 29 30 30 29 29 29 29 29 28 28 28 26
24 24 25 25 26 27 27 27 27 27 28 28 29 29 28 28 28 28 28 28 28 28 27 27 27 27 27 26 26 26 26 27 27 27 27 26 26 26 24 24 23 23 22
22 23 23 24 24 24 24 24 24 24 25 26 26 25 25 25 25 26 26 25 25 25 25 25 24 24 23 23 24 24 25 25 24 24 24 23 22 21 20 19 19 19 18
21 22 22 22 21 21 21 22 22 23 23 23 23 23 23 23 23 23 23 23 23 23 22 22 22 22 22 22 22 22 22 21 21 21 20 18 17 16 16 16 16 16 16
18 18 19 19 19 20 20 20 20 21 21 21 21 21 21 21 21 21 21 21 21 20 20 20 20 20 20 19 19 18 18 17 17 16 16 15 14 14 14 14 14 14 14
15 16 17 17 18 18 18 18 19 19 19 19 19 19 19 19 19 18 18 18 17 17 18 18 18 17 17 17 16 15 15 14 14 14 13 13 13 13 13 13 13 13 13
13 14 14 15 15 15 16 16 16 16 16 16 16 17 17 17 16 16 16 16 15 15 15 15 15 15 13 13 12 13 12 12 12 12 12 11 12 12 12 12 12 13 13
12 12 13 13 13 13 13 13 13 13 13 13 14 14 14 14 13 13 13 13 13 13 13 13 13 11 11 11 11 11 11 11 11 11 11 11 11 11 11 12 12 13 13
10 11 11 12 12 12 12 12 11 11 11 11 12 12 12 12 11 10 10 9 9 10 11 11 11 11 11 11 11 10 10 10 10 10 10 11 11 11 11 11 12 13 13
9 9 10 10 10 10 10 10 10 10 10 10 10 10 10 9 8 8 8 8 9 10 10 10 10 11 11 11 11 11 10 10 10 10 10 10 10 9 10 11 12 13 13
7 8 9 9 9 9 8 8 9 8 8 9 9 9 8 8 7 8 8 8 9 9 10 10 10 10 11 11 10 10 10 9 9 9 9 9 8 9 9 10 11 12 12
7 7 8 7 7 7 7 7 7 7 7 7 8 8 7 7 7 7 7 8 9 9 10 10 10 10 10 10 9 9 9 9 8 8 8 8 8 8 9 10 10 11 12
6 6 7 7 7 6 6 6 6 7 7 7 7 7 7 7 7 8 8 9 9 10 10 10 10 10 10 9 9 8 8 8 8 8 8 7 7 8 9 9 10 11 11
6 6 6 6 6 6 6 6 6 7 7 7 7 7 7 8 8 8 8 9 9 10 10 10 10 9 9 9 8 8 7 7 7 7 7 7 7 8 8 9 10 11 11
6 6 6 6 6 6 6 7 7 7 7 7 7 7 8 8 8 8 9 9 9 10 10 10 10 10 9 9 8 7 7 7 7 7 7 7 7 8 9 9 10 10 11
7 7 7 7 7 7 7 7 7 7 7 7 8 8 8 8 8 9 9 9 9 10 10 10 10 10 9 9 8 8 7 7 7 7 8 8 8 8 9 10 10 11 11
8 8 8 7 8 8 8 8 8 8 8 8 8 9 9 9 9 9 9 9 10 10 10 11 10 10 10 9 9 8 8 8 8 9 9 9 9 9 10 11 11 11 12
9 8 8 8 8 9 9 9 9 9 9 9 9 9 9 9 9 10 10 10 10 11 11 11 11 11 11 10 10 10 9 9 10 10 10 11 11 11 12 12 13 13 13
11 10 10 9 10 10 10 10 10 10 9 9 9 9 10 10 10 10 11 11 11 12 12 12 12 12 12 12 12 11 11 11 11 11 12 13 13 14 14 14 14 14 14
13 12 11 11 11 11 11 11 11 10 10 10 10 10 10 10 10 11 11 11 12 12 12 12 13 13 13 13 13 13 13 13 13 14 14 15 15 16 16 15 15 15 15
Wind_Direction
269 269 270 271 273 273 274 275 276 277 278 279 281 282 282 284 285 285 286 285 285 286 286 286 286 287 286 285 285 284 284 285 284 284 283 283 282 283 285 286 287 287 288
269 270 270 271 272 273 274 275 276 277 278 280 281 284 285 285 285 285 286 286 286 286 286 286 285 286 286 286 286 286 286 287 287 286 287 287 286 287 288 289 289 290 291
271 270 271 271 272 273 274 276 277 278 280 282 283 284 285 286 286 285 285 286 286 287 287 287 286 286 286 286 286 286 286 287 287 288 289 290 290 290 291 292 291 292 292
271 270 271 272 273 275 277 278 279 280 281 281 283 284 285 286 286 286 286 286 286 287 287 287 287 288 288 287 288 288 288 288 288 290 291 292 292 293 294 294 295 296 296
271 271 271 272 274 275 277 279 280 281 281 282 283 284 285 285 286 286 286 286 286 286 287 287 288 289 289 289 289 289 289 290 291 292 292 293 294 295 296 297 298 299 299
276 274 274 275 276 277 278 280 281 281 281 282 283 283 284 285 286 286 287 287 288 288 288 289 290 290 290 290 290 291 291 292 293 294 294 295 296 297 299 300 302 302 303
278 277 277 277 277 278 281 281 280 281 282 282 283 284 286 287 287 288 290 290 291 291 291 291 292 292 292 291 292 292 293 295 296 297 297 298 298 299 300 302 304 305 306
280 279 278 278 278 280 281 281 280 281 282 283 285 286 287 288 289 291 292 293 293 293 293 294 295 295 294 295 295 295 296 298 299 300 301 301 301 302 303 306 309 311 312
281 281 282 281 281 282 283 283 283 283 284 285 286 286 288 290 292 293 294 294 293 294 294 295 296 297 297 297 297 298 299 301 301 303 304 306 307 308 310 312 316 319 321
282 283 283 284 283 284 285 286 285 286 286 287 287 287 289 291 293 293 293 294 295 295 296 298 300 300 300 301 302 302 303 305 306 308 310 312 313 316 318 321 324 327 329
286 286 287 287 286 286 286 287 287 288 288 288 289 290 291 293 293 293 295 297 298 298 299 301 303 303 304 305 306 306 308 310 312 314 318 321 323 325 328 331 334 335 336
288 290 291 290 288 288 288 291 292 292 291 290 291 292 293 294 295 296 299 302 302 303 304 306 307 308 308 309 311 313 315 317 318 322 325 327 330 332 336 339 340 341 341
290 292 292 291 290 291 293 295 296 294 293 293 294 296 298 299 299 300 301 303 305 307 310 312 314 315 317 319 322 324 323 323 325 327 329 332 334 336 339 343 346 347 348
294 294 295 296 297 298 299 299 299 299 298 298 300 301 302 302 303 305 307 309 311 313 315 319 322 325 327 329 331 331 330 329 330 331 332 335 338 341 345 349 352 354 355
297 299 299 299 301 303 303 303 305 305 305 306 306 307 308 308 311 314 315 318 322 325 326 327 329 331 333 334 333 333 333 333 333 334 337 340 344 347 351 354 356 358 1
306 306 305 306 308 308 307 308 310 312 313 315 317 318 318 319 322 324 325 327 328 330 331 332 334 335 335 334 334 334 335 337 338 340 342 345 350 354 358 1 3 5 8
319 320 319 318 319 319 318 318 319 322 325 327 330 330 329 330 330 331 332 333 333 334 334 335 335 336 335 334 334 335 338 341 342 345 348 353 358 2 6 8 10 12 15
329 329 329 331 334 335 335 334 334 334 336 338 339 340 340 341 340 339 339 339 339 340 339 338 336 335 334 335 336 338 341 345 349 355 358 2 6 11 15 17 17 18 21
340 340 342 345 348 349 349 348 349 349 348 348 349 351 353 352 350 348 348 347 345 345 343 341 340 340 340 342 344 345 348 353 358 3 7 10 16 20 24 26 24 26 29
356 353 351 352 355 358 358 358 359 0 360 360 1 0 0 359 356 354 352 351 350 349 348 348 349 351 352 354 356 357 0 4 7 12 18 22 26 31 35 37 34 33 33
6 1 358 360 3 5 9 12 12 10 10 11 9 7 6 4 1 360 359 358 357 356 358 0 1 2 3 5 8 10 12 15 18 23 29 34 38 41 45 47 45 42 42
18 16 12 14 17 20 24 25 22 20 21 20 17 14 12 10 8 7 7 9 10 10 11 12 12 12 14 16 19 22 26 30 33 37 42 47 50 52 54 56 55 53 51
29 28 26 26 28 30 31 30 28 27 27 25 24 23 23 22 21 20 20 21 20 20 19 20 21 22 23 27 32 38 43 45 47 51 55 57 61 63 65 65 63 61 58
37 36 33 33 35 36 36 35 34 33 31 30 30 30 30 30 30 31 29 29 29 28 29 30 31 34 37 41 46 49 52 54 58 62 65 67 69 71 72 72 71 68 65
42 40 39 40 41 42 42 40 39 37 38 38 37 36 36 37 36 35 35 36 36 36 38 40 42 45 48 51 54 57 60 64 68 71 73 74 76 77 78 77 75 71 68
45 44 45 45 45 46 46 44 41 41 42 41 41 41 41 40 39 38 39 40 40 42 45 47 50 52 54 57 60 64 68 71 74 76 78 79 79 79 78 76 73 71 68
Height
5779 5779 5779 5778 5778 5778 5777 5776 5776 5775 5773 5772 5771 5769 5767 5765 5763 5762 5760 5758 5756 5754 5751 5748 5746 5743 5740 5737 5735 5732 5729 5725 5721 5717 5714 5710 5707 5703 5699 5694 5690 5685 5679
5770 5770 5770 5770 5769 5769 5768 5767 5766 5765 5764 5762 5760 5758 5756 5755 5753 5751 5749 5746 5744 5742 5739 5737 5734 5731 5728 5725 5722 5719 5716 5713 5709 5705 5701 5698 5694 5690 5686 5682 5677 5672 5667
5761 5761 5761 5761 5760 5760 5759 5758 5757 5755 5754 5752 5750 5748 5746 5744 5742 5740 5737 5735 5733 5730 5728 5725 5723 5720 5717 5713 5710 5707 5704 5701 5698 5694 5690 5686 5682 5678 5674 5670 5665 5660 5656
5753 5753 5752 5752 5752 5751 5750 5749 5747 5745 5744 5742 5740 5738 5736 5734 5732 5729 5727 5724 5722 5719 5717 5714 5712 5709 5705 5702 5699 5696 5693 5690 5686 5683 5679 5676 5672 5668 5664 5659 5655 5650 5646
5745 5744 5744 5743 5743 5742 5740 5739 5738 5736 5734 5732 5731 5729 5726 5724 5722 5719 5717 5714 5712 5709 5707 5704 5701 5698 5695 5692 5689 5685 5682 5679 5676 5673 5670 5666 5662 5658 5654 5650 5645 5641 5636
5737 5736 5735 5735 5734 5733 5732 5730 5728 5727 5725 5723 5722 5720 5718 5715 5713 5710 5708 5705 5702 5699 5697 5694 5691 5688 5685 5682 5679 5676 5674 5670 5667 5664 5660 5657 5653 5649 5645 5641 5637 5633 5629
5730 5729 5728 5727 5726 5725 5723 5722 5720 5718 5717 5715 5713 5712 5709 5707 5704 5702 5699 5696 5694 5691 5688 5685 5682 5679 5677 5674 5671 5668 5665 5662 5659 5656 5652 5649 5645 5642 5638 5634 5630 5626 5622
5722 5722 5720 5719 5718 5717 5716 5714 5712 5711 5709 5707 5706 5704 5702 5699 5696 5694 5691 5689 5686 5683 5681 5678 5675 5672 5669 5666 5664 5661 5658 5656 5653 5649 5646 5642 5639 5635 5632 5629 5625 5621 5617
5716 5715 5713 5712 5711 5710 5708 5707 5705 5704 5702 5700 5698 5696 5694 5692 5689 5687 5684 5682 5679 5677 5674 5671 5668 5666 5663 5660 5657 5655 5652 5649 5646 5643 5640 5636 5633 5629 5626 5623 5620 5617 5613
5710 5708 5707 5706 5705 5703 5702 5701 5699 5697 5695 5693 5691 5689 5687 5685 5683 5681 5678 5676 5673 5670 5668 5665 5663 5660 5657 5654 5651 5649 5646 5643 5641 5638 5634 5631 5628 5625 5623 5620 5617 5614 5610
5704 5703 5702 5700 5699 5698 5696 5695 5693 5691 5689 5687 5685 5683 5681 5680 5677 5675 5672 5670 5667 5665 5663 5660 5657 5655 5652 5649 5647 5644 5642 5639 5636 5634 5631 5628 5625 5623 5620 5617 5614 5612 5608
5700 5698 5697 5695 5694 5692 5691 5689 5687 5685 5683 5681 5680 5678 5676 5674 5672 5670 5668 5665 5663 5660 5658 5656 5653 5650 5648 5645 5643 5641 5638 5636 5634 5631 5629 5626 5624 5621 5618 5616 5613 5610 5607
5696 5694 5693 5691 5689 5688 5686 5684 5682 5680 5679 5677 5675 5674 5672 5670 5668 5666 5663 5661 5659 5657 5654 5652 5649 5647 5644 5642 5640 5638 5636 5634 5631 5629 5627 5624 5622 5620 5617 5614 5611 5609 5606
5692 5691 5689 5687 5686 5684 5682 5680 5678 5677 5675 5673 5671 5670 5668 5666 5664 5662 5660 5658 5656 5654 5651 5649 5647 5645 5643 5640 5638 5636 5634 5632 5630 5627 5625 5623 5621 5618 5616 5613 5610 5608 5605
5688 5687 5686 5684 5682 5681 5679 5677 5675 5674 5672 5670 5669 5667 5665 5663 5661 5659 5657 5655 5653 5652 5650 5648 5646 5643 5641 5639 5637 5635 5632 5630 5628 5626 5624 5622 5619 5617 5615 5613 5610 5607 5604
5685 5684 5683 5681 5680 5678 5676 5675 5673 5672 5670 5668 5666 5665 5663 5661 5659 5657 5656 5654 5652 5650 5648 5646 5644 5642 5640 5638 5636 5633 5631 5629 5627 5625 5623 5621 5618 5616 5614 5612 5610 5607 5605
5684 5682 5681 5679 5678 5676 5674 5673 5671 5670 5668 5667 5665 5663 5661 5660 5658 5656 5654 5653 5651 5649 5647 5645 5643 5641 5639 5637 5634 5632 5630 5628 5626 5624 5622 5620 5618 5616 5614 5612 5610 5608 5606
5683 5681 5680 5678 5676 5675 5673 5672 5670 5669 5667 5666 5664 5662 5660 5659 5657 5655 5653 5652 5650 5648 5646 5644 5642 5639 5637 5635 5633 5631 5629 5627 5625 5623 5621 5619 5618 5616 5615 5613 5611 5609 5607
5682 5681 5679 5677 5676 5674 5673 5671 5670 5669 5667 5665 5663 5662 5660 5658 5656 5655 5653 5651 5649 5647 5645 5643 5640 5638 5636 5634 5632 5630 5628 5626 5625 5623 5621 5620 5618 5617 5615 5613 5612 5610 5608
5681 5680 5679 5678 5676 5674 5673 5671 5670 5668 5667 5665 5663 5662 5660 5658 5656 5654 5652 5650 5648 5646 5644 5642 5639 5637 5635 5633 5631 5629 5628 5626 5624 5623 5621 5620 5619 5617 5616 5614 5613 5612 5610
5681 5680 5679 5678 5676 5674 5673 5671 5670 5668 5666 5665 5663 5662 5660 5658 5656 5654 5652 5650 5648 5646 5644 5641 5639 5637 5635 5633 5631 5629 5628 5626 5625 5623 5622 5621 5620 5618 5617 5616 5615 5613 5612
5682 5680 5679 5678 5676 5675 5673 5672 5670 5669 5667 5665 5664 5662 5660 5658 5656 5654 5652 5650 5648 5646 5644 5642 5639 5637 5635 5633 5631 5630 5628 5627 5625 5624 5623 5622 5621 5620 5619 5618 5617 5616 5615
5682 5681 5680 5679 5677 5675 5674 5672 5671 5669 5668 5666 5664 5662 5661 5659 5657 5655 5653 5651 5649 5647 5645 5642 5640 5638 5636 5634 5632 5630 5629 5628 5627 5626 5625 5624 5623 5622 5621 5620 5619 5618 5617
5684 5682 5681 5680 5678 5676 5675 5673 5672 5670 5669 5667 5665 5664 5662 5660 5658 5656 5654 5652 5650 5648 5646 5644 5641 5639 5637 5635 5634 5632 5631 5630 5629 5628 5627 5626 5625 5624 5624 5623 5622 5621 5620
5685 5684 5683 5681 5679 5678 5676 5675 5673 5672 5670 5668 5667 5665 5664 5662 5660 5658 5656 5654 5652 5650 5648 5646 5644 5642 5640 5638 5636 5635 5634 5633 5632 5631 5630 5629 5628 5628 5627 5627 5626 5625 5624
5688 5686 5685 5683 5681 5680 5678 5677 5675 5674 5672 5670 5669 5667 5666 5664 5662 5660 5658 5656 5654 5652 5650 5648 5647 5645 5643 5641 5640 5638 5637 5636 5635 5634 5634 5633 5633 5632 5631 5631 5630 5629 5628